Weather History for Windom, MN

Change the Weather History Date:

Wednesday, December 12, 2012

  Actual Average Record
Temperature  
Mean Temperature 30 °F -  
Max Temperature 42 °F 29 °F 51 °F (1999)
Min Temperature 19 °F 11 °F -16 °F (2000)
Degree Days  
Heating Degree Days 34    
Moisture  
Dew Point 23 °F    
Average Humidity 66    
Maximum Humidity 100    
Minimum Humidity 52    
Precipitation  
Precipitation 0.00 in - - ()
Sea Level Pressure  
Sea Level Pressure 29.81 in    
Wind  
Wind Speed 10 mph (South)    
Max Wind Speed 20 mph    
Max Gust Speed 28 mph    
Visibility 10 miles    
Events      
Averages and records for this station are not official NWS values.
T = Trace of Precipitation, MM = Missing Value Source: NWS Daily Summary

Daily Weather History Graph

Daily Weather History Graph

Search for Another Location

Airport:

Trip Planner

Search our weather history database for the weather conditions in past years. The results will help you decide how hot, cold, wet, or windy it might be!

Date:

Astronomy

Dec. 12, 2012 Rise Set
Actual Time 7:46 AM CST 4:42 PM CST
Civil Twilight 7:13 AM CST 5:15 PM CST
Nautical Twilight 6:36 AM CST 5:52 PM CST
Astronomical Twilight 6:01 AM CST 6:27 PM CST
Moon 6:50 AM CST (12/12) 4:21 PM CST (12/12)
Length of Visible Light 10h 02m
Length of Day
8h 56m
Waning Crescent, 1% of the Moon is Illuminated
Dec 12
Waning Crescent
Dec 13
New
Dec 19
First Quarter
Dec 28
Full
Jan 4
Last Quarter

Hourly Weather History & Observations

Time (CST) Temp. Windchill Dew Point Humidity Pressure Visibility Wind Dir Wind Speed Gust Speed Precip Events Conditions
12:12 AM 21.2 °F 13.6 °F 21.2 °F 100% 29.89 in 10.0 mi SE 5.8 mph - N/A   Clear
12:32 AM 21.2 °F - 21.2 °F 100% 29.88 in 10.0 mi Calm Calm - N/A   Clear
12:53 AM 21.2 °F 14.9 °F 19.4 °F 93% 29.88 in 10.0 mi SE 4.6 mph - N/A   Clear
1:13 AM 19.4 °F - 19.4 °F 100% 29.87 in 10.0 mi Calm Calm - N/A   Clear
1:53 AM 19.4 °F 11.5 °F 17.6 °F 93% 29.86 in 10.0 mi SSE 5.8 mph - N/A   Clear
2:13 AM 21.2 °F - 17.6 °F 86% 29.86 in 10.0 mi Calm Calm - N/A   Clear
2:32 AM 21.2 °F - 17.6 °F 86% 29.85 in 10.0 mi Calm Calm - N/A   Clear
2:53 AM 21.2 °F 14.9 °F 17.6 °F 86% 29.85 in 10.0 mi South 4.6 mph - N/A   Clear
3:13 AM 23.0 °F 15.8 °F 17.6 °F 80% 29.85 in 10.0 mi South 5.8 mph - N/A   Scattered Clouds
3:53 AM 26.6 °F 17.5 °F 19.4 °F 74% 29.82 in 10.0 mi South 9.2 mph - N/A   Mostly Cloudy
4:13 AM 28.4 °F 18.0 °F 19.4 °F 69% 29.81 in 10.0 mi South 12.7 mph 18.4 mph N/A   Scattered Clouds
4:32 AM 28.4 °F 17.5 °F 19.4 °F 69% 29.81 in 10.0 mi South 13.8 mph - N/A   Scattered Clouds
4:53 AM 30.2 °F 19.3 °F 19.4 °F 64% 29.81 in 10.0 mi South 15.0 mph 23.0 mph N/A   Mostly Cloudy
5:13 AM 28.4 °F 17.0 °F 19.4 °F 69% 29.80 in 10.0 mi South 15.0 mph 20.7 mph N/A   Mostly Cloudy
5:53 AM 28.4 °F 16.6 °F 19.4 °F 69% 29.79 in 10.0 mi South 16.1 mph 25.3 mph N/A   Clear
6:13 AM 28.4 °F 16.6 °F 19.4 °F 69% 29.80 in 10.0 mi South 16.1 mph 23.0 mph N/A   Clear
6:32 AM 30.2 °F 18.9 °F 19.4 °F 64% 29.79 in 10.0 mi South 16.1 mph 24.2 mph N/A   Clear
6:52 AM 30.2 °F 18.5 °F 19.4 °F 64% 29.80 in 10.0 mi South 17.3 mph 24.2 mph N/A   Clear
7:13 AM 30.2 °F 18.5 °F 19.4 °F 64% 29.80 in 10.0 mi South 17.3 mph 24.2 mph N/A   Clear
7:32 AM 30.2 °F 18.5 °F 21.2 °F 69% 29.80 in 10.0 mi South 17.3 mph - N/A   Clear
7:52 AM 30.2 °F 18.5 °F 21.2 °F 69% 29.80 in 10.0 mi South 17.3 mph 24.2 mph N/A   Clear
8:13 AM 30.2 °F 18.9 °F 21.2 °F 69% 29.81 in 10.0 mi South 16.1 mph 21.9 mph N/A   Clear
8:32 AM 30.2 °F 18.5 °F 21.2 °F 69% 29.80 in 10.0 mi South 17.3 mph 25.3 mph N/A   Clear
8:52 AM 30.2 °F 18.5 °F 21.2 °F 69% 29.81 in 10.0 mi South 17.3 mph 24.2 mph N/A   Clear
9:12 AM 30.2 °F 18.9 °F 21.2 °F 69% 29.80 in 10.0 mi South 16.1 mph 23.0 mph N/A   Clear
9:32 AM 30.2 °F 19.8 °F 21.2 °F 69% 29.81 in 10.0 mi South 13.8 mph - N/A   Clear
9:53 AM 30.2 °F 20.8 °F 21.2 °F 69% 29.81 in 10.0 mi South 11.5 mph 18.4 mph N/A   Clear
10:12 AM 33.8 °F 24.3 °F 21.2 °F 60% 29.81 in 10.0 mi South 13.8 mph 18.4 mph N/A   Clear
11:13 AM 35.6 °F 25.2 °F 24.8 °F 65% 29.79 in 10.0 mi South 18.4 mph 23.0 mph N/A   Clear
11:33 AM 35.6 °F 24.8 °F 24.8 °F 65% 29.78 in 10.0 mi South 19.6 mph 23.0 mph N/A   Clear
11:52 AM 37.4 °F 27.5 °F 24.8 °F 60% 29.78 in 10.0 mi South 18.4 mph 21.9 mph N/A   Clear
12:13 PM 37.4 °F 28.2 °F 24.8 °F 60% 29.78 in 10.0 mi South 16.1 mph 23.0 mph N/A   Clear
12:52 PM 39.2 °F 30.2 °F 26.6 °F 61% 29.77 in 10.0 mi SSW 17.3 mph 25.3 mph N/A   Clear
1:13 PM 39.2 °F 29.8 °F 26.6 °F 61% 29.76 in 10.0 mi SSW 18.4 mph 27.6 mph N/A   Clear
1:32 PM 39.2 °F 29.6 °F 26.6 °F 61% 29.76 in 10.0 mi SSW 19.6 mph 25.3 mph N/A   Clear
1:52 PM 39.2 °F 30.2 °F 26.6 °F 61% 29.76 in 10.0 mi South 17.3 mph 27.6 mph N/A   Clear
2:13 PM 39.2 °F 29.6 °F 26.6 °F 61% 29.76 in 10.0 mi SSW 19.6 mph 24.2 mph N/A   Clear
2:32 PM 41.0 °F 32.8 °F 26.6 °F 57% 29.76 in 10.0 mi South 16.1 mph 21.9 mph N/A   Clear
2:52 PM 41.0 °F 33.5 °F 26.6 °F 57% 29.77 in 10.0 mi SSW 13.8 mph - N/A   Clear
3:13 PM 41.0 °F 33.5 °F 26.6 °F 57% 29.78 in 10.0 mi SSW 13.8 mph - N/A   Clear
3:32 PM 41.0 °F 33.9 °F 26.6 °F 57% 29.78 in 10.0 mi South 12.7 mph - N/A   Clear
3:52 PM 42.8 °F 36.2 °F 26.6 °F 53% 29.78 in 10.0 mi SSW 12.7 mph 18.4 mph N/A   Clear
4:13 PM 41.0 °F 33.9 °F 26.6 °F 57% 29.79 in 10.0 mi SSW 12.7 mph - N/A   Clear
4:32 PM 41.0 °F 35.2 °F 26.6 °F 57% 29.80 in 10.0 mi South 9.2 mph - N/A   Clear
4:52 PM 41.0 °F 35.8 °F 26.6 °F 57% 29.80 in 10.0 mi South 8.1 mph - N/A   Clear
5:12 PM 41.0 °F 35.2 °F 26.6 °F 57% 29.80 in 10.0 mi South 9.2 mph - N/A   Clear
5:32 PM 39.2 °F 35.9 °F 26.6 °F 61% 29.81 in 10.0 mi South 4.6 mph - N/A   Clear
5:53 PM 41.0 °F 34.3 °F 26.6 °F 57% 29.81 in 10.0 mi South 11.5 mph 16.1 mph N/A   Clear
6:53 PM 39.2 °F 31.2 °F 24.8 °F 56% 29.82 in 10.0 mi South 13.8 mph - N/A   Clear
7:12 PM 39.2 °F 31.6 °F 24.8 °F 56% 29.83 in 10.0 mi South 12.7 mph 18.4 mph N/A   Clear
7:53 PM 37.4 °F 32.1 °F 24.8 °F 60% 29.84 in 10.0 mi South 6.9 mph - N/A   Clear
8:12 PM 37.4 °F 30.8 °F 24.8 °F 60% 29.84 in 10.0 mi South 9.2 mph - N/A   Clear
8:53 PM 37.4 °F 31.4 °F 23.0 °F 56% 29.84 in 10.0 mi South 8.1 mph - N/A   Clear
9:12 PM 37.4 °F 30.3 °F 23.0 °F 56% 29.85 in 10.0 mi South 10.4 mph - N/A   Clear
9:33 PM 37.4 °F 31.4 °F 23.0 °F 56% 29.85 in 10.0 mi South 8.1 mph - N/A   Clear
9:53 PM 37.4 °F 31.4 °F 21.2 °F 52% 29.85 in 10.0 mi South 8.1 mph - N/A   Clear
10:12 PM 37.4 °F 31.4 °F 21.2 °F 52% 29.85 in 10.0 mi South 8.1 mph - N/A   Clear
10:53 PM 37.4 °F 31.4 °F 21.2 °F 52% 29.86 in 10.0 mi South 8.1 mph - N/A   Clear
11:12 PM 37.4 °F 30.3 °F 21.2 °F 52% 29.86 in 10.0 mi South 10.4 mph - N/A   Clear
11:33 PM 37.4 °F 30.3 °F 21.2 °F 52% 29.86 in 10.0 mi South 10.4 mph - N/A   Clear
11:53 PM 35.6 °F 28.6 °F 21.2 °F 56% 29.86 in 10.0 mi South 9.2 mph - N/A   Clear